Tracking 29487 objects as of 11-Sep-2024
HD Live streaming from Space Station
objects crossing your sky now

STARLINK-2108

Track STARLINK-2108 now!
10-day predictions
STARLINK-2108 is classified as:


NORAD ID: 47387
Int'l Code: 2021-005AQ
Perigee: 342.8 km
Apogee: 344.7 km
Inclination: 53.1 °
Period: 91.3 minutes
Semi major axis: 6714 km
RCS: Unknown
Launch date: January 20, 2021
Source: United States (US)
Launch site: AIR FORCE EASTERN TEST RANGE (AFETR)
Your satellite tracking list
Your tracking list is empty




NASA's NSSDC Master Catalog

Two Line Element Set (TLE):
1 47387U 21005AQ  24255.25001157  .00922428  00000-0  48118-2 0  9997
2 47387  53.0554 336.2355 0001390  86.7366 221.9420 15.77833495201105
Source of the keplerian elements: AFSPC